Weather History for KSYN - November, 2013

Change the Weather History Date:

Wednesday, November 6, 2013

  Actual Average (KLVN) Record (KLVN)
Temperature  
Mean Temperature 34 °F -  
Max Temperature 38 °F 45 °F 71 °F (2004)
Min Temperature 30 °F 27 °F 4 °F (1951)
Degree Days  
Heating Degree Days 31    
Moisture  
Dew Point 28 °F    
Average Humidity 81    
Maximum Humidity 93    
Minimum Humidity 62    
Precipitation  
Precipitation 0.08 in - - ()
Sea Level Pressure  
Sea Level Pressure 30.07 in    
Wind  
Wind Speed 11 mph (WNW)    
Max Wind Speed 16 mph    
Max Gust Speed 23 mph    
Visibility 9 miles    
Events Snow    
Averages and records for this station are not official NWS values.
T = Trace of Precipitation, MM = Missing Value Source: NWS Daily Summary

Daily Weather History Graph

Daily Weather History Graph

Search for Another Location

Airport or City:

Trip Planner

Search our weather history database for the weather conditions in past years. The results will help you decide how hot, cold, wet, or windy it might be!

Date:

Astronomy

Nov. 06, 2013 Rise Set
Actual Time 6:56 AM CST 4:54 PM CST
Civil Twilight 6:25 AM CST 5:24 PM CST
Nautical Twilight 5:51 AM CST 5:59 PM CST
Astronomical Twilight 5:17 AM CST 6:33 PM CST
Moon 10:15 AM CST (11/6) 7:56 PM CST (11/6)
Length of Visible Light 10h 59m
Length of Day
9h 57m
Waxing Crescent, 14% of the Moon is Illuminated
Nov 6
Waxing Crescent
Nov 9
First Quarter
Nov 17
Full
Nov 25
Last Quarter
Dec 2
New

Hourly Weather History & Observations

Time (CST) Temp. Windchill Dew Point Humidity Pressure Visibility Wind Dir Wind Speed Gust Speed Precip Events Conditions
12:12 AM 33.8 °F 24.8 °F 32.0 °F 93% 29.97 in 3.0 mi North 12.7 mph - 0.01 in Snow Light Snow
12:32 AM 33.8 °F 24.3 °F 32.0 °F 93% 29.98 in 4.0 mi North 13.8 mph - 0.02 in Snow Light Snow
12:52 AM 33.8 °F 24.3 °F 32.0 °F 93% 29.97 in 4.0 mi North 13.8 mph 19.6 mph 0.02 in Snow Light Snow
1:12 AM 33.8 °F 23.5 °F 32.0 °F 93% 29.96 in 2.5 mi North 16.1 mph - N/A Snow Light Snow
1:32 AM 33.8 °F 25.8 °F 32.0 °F 93% 29.98 in 2.5 mi North 10.4 mph 17.3 mph N/A Snow Light Snow
1:52 AM 33.8 °F 24.8 °F 32.0 °F 93% 29.98 in 4.0 mi North 12.7 mph 17.3 mph 0.01 in Snow Light Snow
2:11 AM 33.8 °F 23.9 °F 32.0 °F 93% 29.98 in 5.0 mi NNW 15.0 mph 19.6 mph 0.01 in Snow Light Snow
2:32 AM 33.8 °F 23.9 °F 32.0 °F 93% 29.97 in 5.0 mi North 15.0 mph 23.0 mph 0.01 in Snow Light Snow
2:52 AM 33.8 °F 24.3 °F 31.8 °F 92% 29.98 in 4.0 mi NNW 13.8 mph - 0.02 in Snow Light Snow
3:12 AM 33.8 °F 25.3 °F 32.0 °F 93% 29.98 in 5.0 mi NNW 11.5 mph 17.3 mph N/A Snow Light Snow
3:31 AM 33.8 °F 24.3 °F 31.8 °F 92% 30.00 in 10.0 mi NNW 13.8 mph - N/A   Overcast
3:52 AM 33.8 °F 24.8 °F 31.6 °F 92% 29.99 in 10.0 mi NNW 12.7 mph 17.3 mph 0.01 in   Overcast
4:12 AM 33.8 °F 25.3 °F 31.3 °F 90% 30.00 in 10.0 mi NNW 11.5 mph - N/A   Overcast
4:31 AM 33.8 °F 23.9 °F 31.1 °F 90% 30.00 in 10.0 mi North 15.0 mph 19.6 mph N/A   Overcast
4:52 AM 33.8 °F 25.8 °F 30.9 °F 89% 29.99 in 10.0 mi North 10.4 mph - N/A   Overcast
5:12 AM 33.4 °F 25.9 °F 31.1 °F 91% 29.99 in 10.0 mi NNW 9.2 mph - N/A   Overcast
5:31 AM 33.3 °F 24.6 °F 31.1 °F 92% 30.00 in 10.0 mi NNW 11.5 mph - N/A   Overcast
5:52 AM 33.3 °F 26.4 °F 30.9 °F 91% 30.00 in 10.0 mi NNW 8.1 mph - N/A   Overcast
6:12 AM 33.3 °F 25.1 °F 31.1 °F 92% 30.00 in 10.0 mi NNW 10.4 mph - N/A   Overcast
6:32 AM 32.9 °F 25.3 °F 30.6 °F 91% 30.00 in 10.0 mi NNW 9.2 mph - N/A   Mostly Cloudy
6:51 AM 32.5 °F 26.2 °F 30.2 °F 91% 30.00 in 10.0 mi NW 6.9 mph - N/A   Scattered Clouds
7:12 AM 32.2 °F 25.8 °F 30.0 °F 92% 30.02 in 10.0 mi NW 6.9 mph - N/A   Mostly Cloudy
7:32 AM 32.9 °F 26.7 °F 30.0 °F 89% 30.02 in 10.0 mi NW 6.9 mph - N/A   Overcast
7:51 AM 32.5 °F 24.8 °F 29.8 °F 90% 30.03 in 10.0 mi NW 9.2 mph - 0.01 in   Overcast
8:12 AM 32.7 °F 25.7 °F 29.3 °F 87% 30.03 in 10.0 mi NW 8.1 mph - N/A   Overcast
8:31 AM 32.5 °F 25.5 °F 29.1 °F 87% 30.04 in 10.0 mi NW 8.1 mph - N/A   Overcast
8:52 AM 32.5 °F 25.5 °F 29.1 °F 87% 30.04 in 10.0 mi WNW 8.1 mph - 0.01 in   Scattered Clouds
9:12 AM 33.3 °F 25.7 °F 29.3 °F 85% 30.05 in 10.0 mi NW 9.2 mph - N/A   Clear
9:31 AM 33.8 °F 25.8 °F 29.3 °F 84% 30.06 in 10.0 mi NW 10.4 mph - N/A   Clear
9:52 AM 34.2 °F 26.2 °F 29.3 °F 82% 30.06 in 10.0 mi WNW 10.4 mph - N/A   Clear
10:12 AM 34.5 °F 26.7 °F 29.1 °F 81% 30.07 in 10.0 mi WNW 10.4 mph - N/A   Clear
10:31 AM 34.7 °F 27.5 °F 28.9 °F 79% 30.07 in 10.0 mi WNW 9.2 mph - N/A   Clear
10:52 AM 35.4 °F 27.8 °F 28.9 °F 77% 30.07 in 10.0 mi WNW 10.4 mph - N/A   Clear
11:12 AM 36.0 °F 29.0 °F 28.9 °F 76% 30.08 in 10.0 mi WNW 9.2 mph - N/A   Clear
11:32 AM 36.5 °F 29.7 °F 28.4 °F 72% 30.08 in 10.0 mi WNW 9.2 mph - N/A   Clear
11:52 AM 36.9 °F 30.1 °F 27.1 °F 68% 30.08 in 10.0 mi West 9.2 mph - N/A   Clear
12:12 PM 37.4 °F 29.8 °F 27.9 °F 68% 30.08 in 10.0 mi West 11.5 mph - N/A   Clear
12:32 PM 37.6 °F 29.1 °F 27.1 °F 66% 30.08 in 10.0 mi West 13.8 mph - N/A   Clear
12:52 PM 38.3 °F 30.9 °F 28.0 °F 67% 30.08 in 10.0 mi West 11.5 mph - N/A   Clear
1:12 PM 38.3 °F 30.9 °F 26.6 °F 63% 30.08 in 10.0 mi West 11.5 mph - N/A   Clear
1:32 PM 38.3 °F 30.9 °F 27.1 °F 64% 30.09 in 10.0 mi West 11.5 mph - N/A   Clear
1:52 PM 38.7 °F 30.5 °F 26.8 °F 62% 30.09 in 10.0 mi WNW 13.8 mph - N/A   Clear
2:11 PM 38.7 °F 30.9 °F 26.8 °F 62% 30.10 in 10.0 mi WNW 12.7 mph - N/A   Clear
2:32 PM 38.7 °F 30.5 °F 27.3 °F 64% 30.10 in 10.0 mi WNW 13.8 mph - N/A   Clear
2:52 PM 38.3 °F 30.5 °F 27.0 °F 64% 30.10 in 10.0 mi West 12.7 mph - N/A   Clear
3:12 PM 38.5 °F 31.1 °F 26.6 °F 62% 30.11 in 10.0 mi West 11.5 mph - N/A   Clear
3:32 PM 38.3 °F 30.5 °F 26.4 °F 62% 30.12 in 10.0 mi West 12.7 mph - N/A   Clear
3:52 PM 37.8 °F 31.3 °F 27.7 °F 67% 30.13 in 10.0 mi West 9.2 mph - N/A   Clear
4:12 PM 36.5 °F 29.7 °F 26.6 °F 67% 30.13 in 10.0 mi West 9.2 mph - N/A   Clear
4:32 PM 35.6 °F 28.6 °F 26.4 °F 69% 30.13 in 10.0 mi West 9.2 mph - N/A   Clear
4:52 PM 34.9 °F 28.3 °F 25.5 °F 69% 30.13 in 10.0 mi West 8.1 mph - N/A   Clear
5:12 PM 33.8 °F 28.6 °F 25.7 °F 72% 30.13 in 10.0 mi West 5.8 mph - N/A   Clear
5:32 PM 33.8 °F 28.6 °F 25.5 °F 72% 30.13 in 10.0 mi WSW 5.8 mph - N/A   Scattered Clouds
5:52 PM 33.4 °F 27.3 °F 26.2 °F 75% 30.13 in 10.0 mi WSW 6.9 mph - N/A   Scattered Clouds
6:12 PM 33.4 °F 26.6 °F 26.1 °F 74% 30.14 in 10.0 mi SW 8.1 mph - N/A   Mostly Cloudy
6:32 PM 33.3 °F 26.4 °F 25.9 °F 74% 30.15 in 10.0 mi WSW 8.1 mph - N/A   Scattered Clouds
6:52 PM 32.5 °F 26.2 °F 25.5 °F 75% 30.15 in 10.0 mi SW 6.9 mph - N/A   Clear
7:12 PM 31.6 °F 25.1 °F 25.3 °F 78% 30.15 in 10.0 mi SW 6.9 mph - N/A   Clear
7:31 PM 30.2 °F 25.4 °F 25.3 °F 82% 30.15 in 10.0 mi SSW 4.6 mph - N/A   Scattered Clouds
7:52 PM 30.4 °F 25.6 °F 26.1 °F 84% 30.15 in 10.0 mi SSW 4.6 mph - N/A   Overcast
8:12 PM 31.1 °F 25.4 °F 26.4 °F 83% 30.15 in 10.0 mi SSW 5.8 mph - N/A   Overcast
8:32 PM 31.6 °F 27.0 °F 26.4 °F 81% 30.15 in 10.0 mi SSW 4.6 mph - N/A   Overcast
8:52 PM 31.8 °F 25.4 °F 26.6 °F 81% 30.15 in 10.0 mi SW 6.9 mph - N/A   Overcast
9:12 PM 31.8 °F 25.4 °F 26.8 °F 82% 30.15 in 10.0 mi SSW 6.9 mph - N/A   Overcast
9:32 PM 32.0 °F 26.4 °F 27.1 °F 82% 30.15 in 10.0 mi SW 5.8 mph - N/A   Overcast
9:52 PM 32.0 °F 25.6 °F 27.1 °F 82% 30.15 in 10.0 mi SW 6.9 mph - N/A   Overcast
10:12 PM 32.0 °F 26.4 °F 27.0 °F 82% 30.16 in 10.0 mi SW 5.8 mph - N/A   Overcast
10:32 PM 32.4 °F 26.0 °F 26.8 °F 80% 30.16 in 10.0 mi SW 6.9 mph - N/A   Overcast
10:52 PM 32.2 °F 25.8 °F 26.6 °F 80% 30.16 in 10.0 mi SW 6.9 mph - N/A   Overcast
11:12 PM 32.0 °F 26.4 °F 26.2 °F 79% 30.16 in 10.0 mi WSW 5.8 mph - N/A   Scattered Clouds
11:32 PM 30.9 °F 25.2 °F 25.7 °F 81% 30.16 in 10.0 mi SW 5.8 mph - N/A   Clear
11:51 PM 30.2 °F 23.4 °F 25.7 °F 83% 30.16 in 10.0 mi SW 6.9 mph - N/A   Clear